Location: Civry
(47.2902°N, 4.6156°E)
Time: 18:12:14
(UTC+00:00)

Mayak - Pass Details

Date: 09 April 2020
Orbit: 581 x 601 km, 97.5° (Epoch: 25 May)

Event Time Altitude Azimuth Distance (km) Brightness Sun altitude
Rises 22:00:55 0° 13° (NNE) 2,822 ? -30.3°
Reaches altitude 10° 22:03:06 10° 13° (NNE) 1,914 ? -30.4°
Enters shadow 22:04:43 23° 14° (NNE) 1,258 ? -30.6°
